Hourly Data Report for March 31, 2016

MIRAMICHI RCS
NEW BRUNSWICK

47°00'34.000" N
65°27'54.000" W
33.00 m
8100989
71744
ACQ

Download Data

Hourly Data (March 2016)
Hourly Data Report for March 31, 2016
TIME
LST
Temp Definition
°C
Dew Point Definition
°C
Rel Hum Definition
%
Precip. Amount Definition
mm

Wind Dir Definition
10's deg

Wind Spd Definition
km/h
Visibility Definition
km
Stn Press Definition
kPa
Hmdx Definition


Wind Chill Definition


Weather Definition


00:00 4.6 -5.2 49 0.0 24 23   100.84     LegendNANA
01:00 5.0 -4.8 49 0.0 24 26   100.82     LegendNANA
02:00 4.6 -4.6 51 0.0 25 19   100.73     LegendNANA
03:00 3.9 -4.0 56 0.0 22 24   100.66     LegendNANA
04:00 3.5 -3.5 60 0.0 23 22   100.59     LegendNANA
05:00 3.4 -2.9 63 0.0 23 24   100.55     LegendNANA
06:00 3.2 -2.2 68 0.0 23 18   100.55     LegendNANA
07:00 3.5 -1.5 70 0.0 23 17   100.55     LegendNANA
08:00 4.4 -1.1 67 0.0 24 17   100.55     LegendNANA
09:00 4.8 -0.5 68 0.0 23 25   100.55     LegendNANA
10:00 5.7 -0.1 66 0.0 23 29   100.56     LegendNANA
11:00 6.6 0.4 64 0.0 23 33   100.54     LegendNANA
12:00 5.9 0.9 70 0.0 23 25   100.51     LegendNANA
13:00 4.3 2.5 88 1.1 23 20   100.56     LegendNANA
14:00 4.2 2.9 91 2.5 22 9   100.49     LegendNANA
15:00 4.4 3.3 93 1.9 21 11   100.50     LegendNANA
16:00 4.7 3.6 93 2.0 20 13   100.51     LegendNANA
17:00 4.2 3.3 93 1.9 19 12   100.52     LegendNANA
18:00 3.8 2.9 94 1.4 19 4   100.49     LegendNANA
19:00 3.6 2.8 95 0.2   0   100.50     LegendNANA
20:00 2.9 2.1 95 0.0 9 5   100.42     LegendNANA
21:00 2.6 1.9 95 0.0 10 7   100.33     LegendNANA
22:00 3.5 2.8 95 0.0 10 9   100.26     LegendNANA
23:00 3.7 3.0 95 0.2 8 4   100.17     LegendNANA

Notes on Data Quality.

Legend

  • E = Estimated
  • M = Missing
  • NA = Not Available*
  • [empty] = Indicates an unobserved value
Date modified: